This is the latest recevied weather packets stored in our database for station/object AG7BI. If no packets are shown the sender has not sent any weather packets the latest 1 day(s).
| Time | Temp. | Humidity | Pressure | Rain* | Wind** | Luminosity | Snow |
|---|---|---|---|---|---|---|---|
| 1777992952 | 11.11° C | 90% | 1015.7 hPa | 0 mm | 0.89 m/s, 131° | - | - |
| 1777992652 | 11.11° C | 90% | 1015.7 hPa | 0 mm | 0.89 m/s, 144° | - | - |
| 1777992352 | 11.11° C | 90% | 1015.9 hPa | 0 mm | 0.89 m/s, 143° | - | - |
| 1777992052 | 11.11° C | 90% | 1015.7 hPa | 0 mm | 0.89 m/s, 173° | - | - |
| 1777991752 | 11.11° C | 91% | 1015.5 hPa | 0 mm | 0.89 m/s, 153° | - | - |
| 1777991452 | 11.11° C | 91% | 1015.8 hPa | 0 mm | 0.45 m/s, 118° | - | - |
| 1777991152 | 11.11° C | 92% | 1015.4 hPa | 0 mm | 0.89 m/s, 139° | - | - |
| 1777990852 | 11.11° C | 91% | 1015.8 hPa | 0 mm | 0.45 m/s, 163° | - | - |
| 1777990552 | 11.11° C | 91% | 1015.5 hPa | 0 mm | 0.45 m/s, 137° | - | - |
| 1777990252 | 11.11° C | 91% | 1015.4 hPa | 0 mm | 1.34 m/s, 154° | - | - |
| 1777989952 | 11.11° C | 91% | 1015.3 hPa | 0 mm | 0.45 m/s, 142° | - | - |
| 1777989652 | 11.11° C | 91% | 1015.4 hPa | 0 mm | 0.89 m/s, 124° | - | - |
| 1777989352 | 11.11° C | 91% | 1015.4 hPa | 0 mm | 0.45 m/s, 137° | - | - |
| 1777989052 | 11.11° C | 92% | 1015.1 hPa | 0 mm | 0.89 m/s, 114° | - | - |
| 1777988752 | 10.56° C | 91% | 1015.1 hPa | 0 mm | 0.89 m/s, 131° | - | - |
| 1777988452 | 10.56° C | 91% | 1014.9 hPa | 0 mm | 0.45 m/s, 147° | - | - |
| 1777988152 | 10.56° C | 92% | 1014.8 hPa | 0 mm | 1.34 m/s, 135° | - | - |
| 1777987852 | 10.56° C | 91% | 1015.1 hPa | 0 mm | 0.89 m/s, 134° | - | - |
| 1777987552 | 10.56° C | 91% | 1015 hPa | 0 mm | 0.45 m/s, 118° | - | - |
| 1777987252 | 10.56° C | 92% | 1015.1 hPa | 0 mm | 0.89 m/s, 136° | - | - |
| 1777986952 | 10.56° C | 92% | 1015 hPa | 0 mm | 0.45 m/s, 147° | - | - |
| 1777986652 | 10.56° C | 92% | 1014.9 hPa | 0 mm | 0.89 m/s, 149° | - | - |
| 1777986352 | 10.56° C | 92% | 1014.7 hPa | 0 mm | 0.89 m/s, 147° | - | - |
| 1777986052 | 10.56° C | 92% | 1014.7 hPa | 0 mm | 0.89 m/s, 132° | - | - |
| 1777985752 | 10.56° C | 92% | 1014.5 hPa | 0 mm | 0.89 m/s, 112° | - | - |
* Rain latest hour (hover to see other rain measurements)
** Current wind speed in m/s (hover to see current wind gust speed)